SCP
1 1 0 0 0 0 0 0 0 0 0 -0 0 0 0 0 0 0 0 0 0 0 0 0 0 0 0 0 0 0 0 0 0 0 0 0 0 0
0 0 0 0 0 0 0 0 0 0 0 0 0 0 0 0 0 0 0 0 0 0 0 0 0 0 0 0 0 0 0 0 0 0 0 0 0 0
0 0 0 0 0 0 0 0 0 0 0 0 0 0 0 0 0 0 0 0 0 0 0 0 0 0 0 0 0 0 0 0 0 0 0 0 0 0
0 0 0 0 -0 0 1 1 0 0 0 0 0 0 0 0 0 0 0 0 0 0 0 0 0 0 0 0 0 0 0 0 -0 -0 0 0 0 0
0 0 -0 -1 -0 1 1 1 0 0 0 0 0 0 0 0 0 0 0 0 0 0 0 0 0 0 0 0 -0 0 0 0 0 0 0 0 0 0
0 0 0 0 0 1 1 1 0 0 0 0 0 0 0 0 0 0 0 0 0 0 0 0 0 0 0 0 0 0 0 -0 -0 -0 0 0 0 0
0 0 1 1 0 1 1 0 0 0 0 0 0 0 0 0 0 0 0 0 0 0 0 0 0 0 0 0 0 0 0 0 0 0 0 0 0 0
0 0 1 1 1 0 1 1 0 0 0 0 0 0 0 0 0 0 0 0 0 0 0 0 0 0 0 0 0 0 0 0 0 0 0 0 0 0
0 0 0 0 1 1 0 0 0 0 0 0 0 0 0 0 0 0 0 0 0 0 0 0 0 0 0 0 0 0 0 0 0 0 0 0 0 0
0 0 0 0 1 1 0 0 0 0 0 0 0 0 0 0 0 0 0 0 0 0 0 0 0 0 0 0 0 0 0 0 0 0 0 0 0 0
0 0 0 0 1 0 0 0 0 0 0 0 0 0 0 0 0 0 0 0 0 0 0 0 0 0 0 0 0 0 0 0 0 0 0 0 -0 -0
0 0 0 0 0 0 0 0 0 0 0 0 0 0 0 0 0 0 0 0 0 0 0 0 0 0 0 0 0 0 0 0 0 0 0 0 0 0
0 0 0 0 0 0 0 0 0 0 0 0 0 0 0 0 0 0 0 0 0 0 0 0 0 0 0 0 0 0 0 0 0 0 0 0 0 0
0 0 0 0 0 0 0 0 0 0 0 0 0 0 0 0 0 0 0 0 0 0 0 0 0 0 0 0 0 0 0 0 0 0 0 0 0 0
0 0 0 0 0 0 0 0 0 0 0 0 0 0 0 0 0 0 0 0 0 0 0 0 0 0 0 0 0 0 0 0 0 0 0 0 0 0
0 0 0 0 0 0 0 0 0 0 0 0 0 0 0 0 0 0 0 0 0 0 0 0 0 0 0 0 0 0 0 0 0 0 0 0 0 0
0 0 0 0 0 0 0 0 0 0 0 0 0 0 0 0 0 0 0 0 0 0 0 0 0 0 0 0 0 0 0 0 0 0 0 0 0 0
0 0 0 0 0 0 0 0 0 0 0 0 0 0 0 0 0 0 0 0 0 0 0 0 0 0 0 0 0 0 0 0 0 0 0 0 0 0
0 0 0 0 0 0 0 0 0 0 0 0 0 0 0 0 0 0 0 0 0 0 0 0 0 0 0 0 0 0 0 0 0 0 0 0 0 0
0 0 0 0 0 0 0 0 0 0 0 0 0 0 0 0 0 0 0 0 0 0 0 0 0 0 0 0 0 0 0 0 0 0 0 0 0 0
0 0 0 0 0 0 0 0 0 0 0 0 0 0 0 0 0 0 0 0 0 0 0 0 0 0 0 0 0 0 0 0 0 0 0 0 0 0
0 0 0 0 0 0 0 0 0 0 0 0 0 0 0 0 0 0 0 0 0 0 0 0 0 0 0 0 0 0 0 0 0 0 0 0 0 0
0 0 0 0 0 0 0 0 0 0 0 0 0 0 0 0 0 0 0 0 0 0 0 0 0 0 0 0 0 0 0 0 0 0 0 0 0 0
Wind_Speed_500mb
71 75 80 95 83 79 75 62 57 57 70 76 57 52 47 39 35 32 33 32 34 40 42 45 40 36 34 34 39 40 36 35 36 36 35 39 40 37
84 83 83 82 79 67 64 60 62 50 54 67 53 50 42 41 36 29 26 29 37 42 43 37 35 30 30 31 36 36 36 37 36 35 34 38 39 37
58 68 70 63 62 58 53 50 47 42 56 58 50 45 41 45 29 25 26 32 41 43 35 29 28 23 23 24 29 32 33 34 33 33 33 35 37 37
63 64 72 73 72 74 64 59 56 46 51 45 46 41 41 35 23 26 29 36 39 34 31 23 21 18 18 19 21 23 26 30 31 30 29 34 38 39
65 63 69 67 75 66 59 59 58 47 47 44 45 40 38 33 21 25 31 36 37 29 24 20 16 13 14 16 18 19 20 22 25 29 30 31 33 35
62 62 63 55 61 62 64 64 54 44 50 44 47 43 40 34 21 25 31 36 33 26 22 18 15 15 17 21 22 20 21 21 23 26 28 30 30 31
56 58 56 56 55 59 62 64 54 47 48 44 44 42 41 28 20 27 32 33 25 22 21 19 17 18 18 20 20 20 22 23 23 23 24 24 24 25
57 53 55 58 59 52 55 46 45 42 46 45 41 43 26 25 25 31 30 30 23 21 23 22 20 21 21 20 18 17 19 19 18 16 16 19 20 19
53 55 55 56 54 52 50 40 41 40 44 40 37 34 24 24 27 32 31 29 21 12 13 17 21 18 19 18 18 17 16 16 16 15 14 13 14 14
53 58 58 57 55 51 45 46 39 43 45 36 28 20 20 21 25 23 20 24 24 15 13 16 17 16 22 19 19 19 18 15 15 16 17 18 16 15
57 60 58 56 54 46 40 42 44 52 42 32 30 23 25 24 24 29 32 32 25 19 17 15 13 9 14 19 20 22 22 20 20 21 17 16 18 20
61 60 56 52 45 39 40 41 57 49 39 40 37 27 29 26 29 27 24 29 22 14 14 17 11 9 6 5 11 17 21 24 25 26 25 20 24 28
64 58 44 39 36 37 35 54 54 36 35 33 29 29 29 29 30 28 26 24 22 16 6 10 6 7 10 9 4 6 8 14 22 26 28 32 32 32
62 53 40 45 38 24 38 55 36 29 31 36 35 31 31 33 28 27 26 24 22 21 16 14 11 7 8 10 8 7 10 12 13 18 25 28 31 37
57 52 47 55 45 39 53 47 37 35 36 36 33 33 30 27 27 28 26 24 23 16 13 10 8 10 13 12 14 16 15 15 15 12 14 17 21 28
57 48 52 49 41 52 54 44 37 37 34 32 32 30 33 32 30 27 25 22 23 18 11 7 2 9 9 9 13 15 15 14 18 18 19 19 19 21
46 45 54 53 49 58 53 43 40 36 36 34 36 40 38 32 28 27 24 22 20 19 17 10 7 7 7 11 13 13 15 14 16 18 20 20 20 18
47 59 56 55 59 56 53 51 48 42 41 41 42 38 35 32 28 26 21 19 18 20 18 17 14 11 10 9 12 11 14 15 11 17 19 17 17 19
60 59 59 55 54 53 52 52 50 46 41 45 44 38 32 33 29 24 21 16 17 16 14 11 8 8 9 5 8 9 14 13 12 17 20 20 21 20
48 53 57 53 48 45 44 44 42 43 44 44 40 35 33 30 28 24 19 17 16 16 14 10 6 6 8 3 2 7 11 11 13 13 15 17 20 21
50 59 54 49 46 49 48 45 47 46 43 42 38 34 32 29 29 25 21 20 17 14 12 8 4 3 2 2 2 2 8 14 12 15 26 31 28 21
60 59 52 49 54 52 50 49 47 44 43 38 34 31 29 29 26 21 17 21 22 16 13 12 11 10 7 5 1 3 7 14 21 26 29 27 22 17
60 57 55 56 55 54 53 51 45 38 33 34 33 33 31 28 24 22 20 16 16 18 15 13 11 11 9 3 2 1 3 5 9 12 15 15 15 19
Wind_Direction_500mb
266 270 273 267 270 276 281 278 275 287 293 299 299 299 300 290 286 285 284 284 283 287 291 285 274 267 263 258 244 239 240 242 248 250 244 235 237 242
265 264 270 270 270 278 275 281 280 280 282 285 290 294 289 292 288 282 278 288 289 293 292 283 272 266 263 257 240 237 240 245 247 248 247 233 235 243
271 271 278 281 270 283 290 298 288 281 280 280 285 281 287 295 286 280 287 283 289 290 281 277 270 260 259 248 237 238 240 242 243 245 236 233 240 248
272 281 285 288 285 287 289 289 288 283 277 277 276 275 284 287 258 273 283 289 288 281 272 273 263 264 255 241 233 232 240 243 243 238 235 238 237 241
275 274 282 280 288 288 286 282 279 279 269 268 271 276 272 276 250 270 284 285 283 266 263 263 255 245 225 225 227 235 239 240 235 236 239 241 245 248
280 278 279 288 281 279 276 269 277 271 260 263 270 260 259 265 249 270 276 284 274 263 248 246 244 239 236 235 237 238 240 243 243 246 248 252 249 248
283 283 278 280 275 269 272 271 272 260 256 258 257 256 254 244 260 274 275 281 258 248 240 241 241 241 241 242 241 241 244 248 247 248 253 252 247 242
285 283 274 277 282 278 278 273 254 248 255 255 260 258 252 256 265 267 270 258 240 238 241 241 243 247 244 241 242 243 243 244 242 235 237 241 241 240
287 278 276 276 280 277 271 256 243 246 243 254 257 252 251 256 264 265 262 244 246 232 256 267 261 244 239 240 241 245 235 235 243 233 222 227 231 234
288 271 275 279 280 275 262 245 237 241 241 245 237 226 244 254 253 252 269 233 223 231 256 269 288 261 262 253 241 233 231 236 233 217 229 244 246 242
279 273 273 275 272 261 240 231 235 236 233 232 217 218 240 241 234 232 227 214 220 235 254 263 280 270 279 266 244 232 232 236 237 232 246 245 239 242
272 277 275 272 261 245 226 232 234 232 236 225 211 223 236 237 234 229 239 220 220 237 243 243 273 266 297 346 271 252 243 240 242 239 243 254 257 260
271 281 273 262 239 239 231 246 239 239 226 200 213 224 229 227 220 212 210 216 224 218 228 241 274 285 266 311 1 354 298 272 259 252 255 260 262 265
270 273 264 244 215 225 242 239 216 199 199 202 209 214 217 216 211 207 208 212 218 221 244 272 254 323 300 304 320 329 341 335 308 287 277 274 270 269
265 260 253 219 200 212 237 219 195 194 195 199 205 210 211 210 200 199 200 202 203 216 234 241 243 286 305 302 315 315 312 322 311 310 307 302 297 280
258 242 220 209 204 226 223 191 196 200 203 204 204 205 202 200 200 200 194 196 207 216 225 203 238 296 303 318 306 328 322 308 312 308 302 295 302 299
234 208 195 196 211 209 195 192 198 204 201 198 197 195 192 187 185 190 196 200 211 212 198 216 254 301 330 332 328 314 310 320 323 320 311 310 328 324
216 199 196 191 199 202 196 198 204 205 201 195 191 190 187 181 177 180 191 198 205 198 207 224 238 260 285 312 339 337 320 307 311 340 340 343 339 331
216 206 197 189 195 198 201 201 200 202 197 193 187 184 189 183 179 178 175 181 187 201 216 228 244 262 288 323 327 338 350 345 322 324 320 323 344 337
203 201 196 190 193 194 191 189 184 181 178 178 181 181 180 188 183 191 194 196 200 207 230 249 229 276 286 277 249 337 328 317 320 332 343 343 337 325
191 199 192 185 182 177 172 170 172 171 170 167 168 180 183 184 190 195 197 197 202 207 209 200 207 199 166 154 239 291 326 330 341 354 343 334 335 335
198 187 181 177 172 168 166 172 168 162 163 167 171 171 173 181 188 193 192 195 214 213 182 182 188 184 190 238 60 165 40 358 347 338 335 331 340 351
184 179 173 170 169 167 167 164 158 155 161 172 176 176 180 183 189 194 188 181 171 174 181 182 205 200 160 123 95 285 13 44 12 357 348 356 347 330
Wind_Speed_850mb
71 75 80 95 83 79 75 62 57 57 70 76 57 52 47 39 35 32 33 32 34 40 42 45 40 36 34 34 39 40 36 35 36 36 35 39 40 37
84 83 83 82 79 67 64 60 62 50 54 67 53 50 42 41 36 29 26 29 37 42 43 37 35 30 30 31 36 36 36 37 36 35 34 38 39 37
58 68 70 63 62 58 53 50 47 42 56 58 50 45 41 45 29 25 26 32 41 43 35 29 28 23 23 24 29 32 33 34 33 33 33 35 37 37
63 64 72 73 72 74 64 59 56 46 51 45 46 41 41 35 23 26 29 36 39 34 31 23 21 18 18 19 21 23 26 30 31 30 29 34 38 39
65 63 69 67 75 66 59 59 58 47 47 44 45 40 38 33 21 25 31 36 37 29 24 20 16 13 14 16 18 19 20 22 25 29 30 31 33 35
62 62 63 55 61 62 64 64 54 44 50 44 47 43 40 34 21 25 31 36 33 26 22 18 15 15 17 21 22 20 21 21 23 26 28 30 30 31
56 58 56 56 55 59 62 64 54 47 48 44 44 42 41 28 20 27 32 33 25 22 21 19 17 18 18 20 20 20 22 23 23 23 24 24 24 25
57 53 55 58 59 52 55 46 45 42 46 45 41 43 26 25 25 31 30 30 23 21 23 22 20 21 21 20 18 17 19 19 18 16 16 19 20 19
53 55 55 56 54 52 50 40 41 40 44 40 37 34 24 24 27 32 31 29 21 12 13 17 21 18 19 18 18 17 16 16 16 15 14 13 14 14
53 58 58 57 55 51 45 46 39 43 45 36 28 20 20 21 25 23 20 24 24 15 13 16 17 16 22 19 19 19 18 15 15 16 17 18 16 15
57 60 58 56 54 46 40 42 44 52 42 32 30 23 25 24 24 29 32 32 25 19 17 15 13 9 14 19 20 22 22 20 20 21 17 16 18 20
61 60 56 52 45 39 40 41 57 49 39 40 37 27 29 26 29 27 24 29 22 14 14 17 11 9 6 5 11 17 21 24 25 26 25 20 24 28
64 58 44 39 36 37 35 54 54 36 35 33 29 29 29 29 30 28 26 24 22 16 6 10 6 7 10 9 4 6 8 14 22 26 28 32 32 32
62 53 40 45 38 24 38 55 36 29 31 36 35 31 31 33 28 27 26 24 22 21 16 14 11 7 8 10 8 7 10 12 13 18 25 28 31 37
57 52 47 55 45 39 53 47 37 35 36 36 33 33 30 27 27 28 26 24 23 16 13 10 8 10 13 12 14 16 15 15 15 12 14 17 21 28
57 48 52 49 41 52 54 44 37 37 34 32 32 30 33 32 30 27 25 22 23 18 11 7 2 9 9 9 13 15 15 14 18 18 19 19 19 21
46 45 54 53 49 58 53 43 40 36 36 34 36 40 38 32 28 27 24 22 20 19 17 10 7 7 7 11 13 13 15 14 16 18 20 20 20 18
47 59 56 55 59 56 53 51 48 42 41 41 42 38 35 32 28 26 21 19 18 20 18 17 14 11 10 9 12 11 14 15 11 17 19 17 17 19
60 59 59 55 54 53 52 52 50 46 41 45 44 38 32 33 29 24 21 16 17 16 14 11 8 8 9 5 8 9 14 13 12 17 20 20 21 20
48 53 57 53 48 45 44 44 42 43 44 44 40 35 33 30 28 24 19 17 16 16 14 10 6 6 8 3 2 7 11 11 13 13 15 17 20 21
50 59 54 49 46 49 48 45 47 46 43 42 38 34 32 29 29 25 21 20 17 14 12 8 4 3 2 2 2 2 8 14 12 15 26 31 28 21
60 59 52 49 54 52 50 49 47 44 43 38 34 31 29 29 26 21 17 21 22 16 13 12 11 10 7 5 1 3 7 14 21 26 29 27 22 17
60 57 55 56 55 54 53 51 45 38 33 34 33 33 31 28 24 22 20 16 16 18 15 13 11 11 9 3 2 1 3 5 9 12 15 15 15 19
Wind_Direction_850mb
266 270 273 267 270 276 281 278 275 287 293 299 299 299 300 290 286 285 284 284 283 287 291 285 274 267 263 258 244 239 240 242 248 250 244 235 237 242
265 264 270 270 270 278 275 281 280 280 282 285 290 294 289 292 288 282 278 288 289 293 292 283 272 266 263 257 240 237 240 245 247 248 247 233 235 243
271 271 278 281 270 283 290 298 288 281 280 280 285 281 287 295 286 280 287 283 289 290 281 277 270 260 259 248 237 238 240 242 243 245 236 233 240 248
272 281 285 288 285 287 289 289 288 283 277 277 276 275 284 287 258 273 283 289 288 281 272 273 263 264 255 241 233 232 240 243 243 238 235 238 237 241
275 274 282 280 288 288 286 282 279 279 269 268 271 276 272 276 250 270 284 285 283 266 263 263 255 245 225 225 227 235 239 240 235 236 239 241 245 248
280 278 279 288 281 279 276 269 277 271 260 263 270 260 259 265 249 270 276 284 274 263 248 246 244 239 236 235 237 238 240 243 243 246 248 252 249 248
283 283 278 280 275 269 272 271 272 260 256 258 257 256 254 244 260 274 275 281 258 248 240 241 241 241 241 242 241 241 244 248 247 248 253 252 247 242
285 283 274 277 282 278 278 273 254 248 255 255 260 258 252 256 265 267 270 258 240 238 241 241 243 247 244 241 242 243 243 244 242 235 237 241 241 240
287 278 276 276 280 277 271 256 243 246 243 254 257 252 251 256 264 265 262 244 246 232 256 267 261 244 239 240 241 245 235 235 243 233 222 227 231 234
288 271 275 279 280 275 262 245 237 241 241 245 237 226 244 254 253 252 269 233 223 231 256 269 288 261 262 253 241 233 231 236 233 217 229 244 246 242
279 273 273 275 272 261 240 231 235 236 233 232 217 218 240 241 234 232 227 214 220 235 254 263 280 270 279 266 244 232 232 236 237 232 246 245 239 242
272 277 275 272 261 245 226 232 234 232 236 225 211 223 236 237 234 229 239 220 220 237 243 243 273 266 297 346 271 252 243 240 242 239 243 254 257 260
271 281 273 262 239 239 231 246 239 239 226 200 213 224 229 227 220 212 210 216 224 218 228 241 274 285 266 311 1 354 298 272 259 252 255 260 262 265
270 273 264 244 215 225 242 239 216 199 199 202 209 214 217 216 211 207 208 212 218 221 244 272 254 323 300 304 320 329 341 335 308 287 277 274 270 269
265 260 253 219 200 212 237 219 195 194 195 199 205 210 211 210 200 199 200 202 203 216 234 241 243 286 305 302 315 315 312 322 311 310 307 302 297 280
258 242 220 209 204 226 223 191 196 200 203 204 204 205 202 200 200 200 194 196 207 216 225 203 238 296 303 318 306 328 322 308 312 308 302 295 302 299
234 208 195 196 211 209 195 192 198 204 201 198 197 195 192 187 185 190 196 200 211 212 198 216 254 301 330 332 328 314 310 320 323 320 311 310 328 324
216 199 196 191 199 202 196 198 204 205 201 195 191 190 187 181 177 180 191 198 205 198 207 224 238 260 285 312 339 337 320 307 311 340 340 343 339 331
216 206 197 189 195 198 201 201 200 202 197 193 187 184 189 183 179 178 175 181 187 201 216 228 244 262 288 323 327 338 350 345 322 324 320 323 344 337
203 201 196 190 193 194 191 189 184 181 178 178 181 181 180 188 183 191 194 196 200 207 230 249 229 276 286 277 249 337 328 317 320 332 343 343 337 325
191 199 192 185 182 177 172 170 172 171 170 167 168 180 183 184 190 195 197 197 202 207 209 200 207 199 166 154 239 291 326 330 341 354 343 334 335 335
198 187 181 177 172 168 166 172 168 162 163 167 171 171 173 181 188 193 192 195 214 213 182 182 188 184 190 238 60 165 40 358 347 338 335 331 340 351
184 179 173 170 169 167 167 164 158 155 161 172 176 176 180 183 189 194 188 181 171 174 181 182 205 200 160 123 95 285 13 44 12 357 348 356 347 330